Location: West Cummington
(42.4920°N, 72.9680°W)
Time: 23:33:17
(UTC-04:00)

Daily predictions for brighter satellites

Satellite Brightness Start Highest point End
(mag) Time Altitude Azimuth Time Altitude Azimuth Time Altitude Azimuth
Cosmos 2266 Rocket 4.3 20:55:38 10° SSE 21:01:38 48° E 21:07:33 10° NNE
Cosmos 1553 Rocket 4.2 20:57:13 10° N 21:03:39 89° W 21:09:58 10° S
CZ-4 DEB 4.1 21:02:03 10° S 21:05:05 39° W 21:08:08 10° NNW
Cosmos 1726 4.4 21:04:02 10° NE 21:05:29 12° ENE 21:06:57 10° E
Cosmos 2237 Rocket 4.4 21:04:05 10° NNE 21:06:14 12° NE 21:08:22 10° ENE
Cosmos 2322 4.1 21:01:54 10° NNW 21:07:33 55° ENE 21:13:07 10° SE
Tiangong 1 3.1 21:06:47 10° S 21:08:02 12° SE 21:09:17 10° ESE
Cosmos 1151 Rocket 3.3 21:05:38 10° N 21:09:50 50° ENE 21:14:03 10° SSE
Cosmos 1441 Rocket 3.2 21:06:12 10° S 21:09:58 89° SW 21:13:45 10° N
SPOT 5 3.2 21:05:40 10° SE 21:10:02 47° ENE 21:14:39 10° N
Cosmos 2322 Rocket 2.9 21:04:36 10° NNW 21:10:03 52° WSW 21:15:28 10° S
Cosmos 2058 4.1 21:13:31 10° SE 21:16:48 24° E 21:20:07 10° NE
AVUM R/B 2.3 21:15:32 10° SSW 21:17:49 77° ESE 21:20:22 10° NNE
Cosmos 2360 Rocket 2.3 21:14:05 10° NNW 21:19:45 70° ENE 21:25:22 10° SSE
SL-16 R/B 3.2 21:15:23 10° NW 21:20:47 46° WSW 21:26:10 10° S
Envisat 3.0 21:17:41 10° SSE 21:22:45 82° ENE 21:27:52 10° NNW
PSLV R/B 3.4 21:22:17 10° SSE 21:25:17 52° ENE 21:28:17 10° N
Cosmos 304 Rocket 3.8 21:21:59 10° NNW 21:26:49 69° ENE 21:31:32 10° SSE
ERS-1 Rocket 3.7 21:21:56 10° S 21:26:51 54° W 21:31:48 10° NNW
Cosmos 1437 3.0 21:26:19 10° S 21:29:29 50° E 21:32:41 10° NNE
MetOp-B 4.3 21:24:50 10° SSE 21:30:06 61° ENE 21:35:23 10° N
Cosmos 1908 3.3 21:26:33 10° N 21:30:27 81° W 21:34:21 10° S
Cosmos 2112 Rocket 4.1 21:27:51 10° NNW 21:33:05 65° ENE 21:37:55 12° SSE
H-2A R/B 2.7 21:29:38 10° S 21:34:06 58° W 21:38:35 10° NNW
Cosmos 1707 Rocket 4.4 21:30:57 10° N 21:34:58 35° ENE 21:38:19 14° SE
Cosmos 1666 Rocket 4.5 21:36:11 12° SSE 21:39:36 31° E 21:43:32 10° NNE
DELTA 2 R/B (1) 4.0 21:37:07 10° W 21:42:27 48° SSW 21:46:52 15° SE
NOSS 3-1 (C) 3.7 21:37:14 10° S 21:42:44 45° ESE 21:48:46 10° NE
Cosmos 1674 3.1 21:39:43 10° SSW 21:43:31 64° W 21:47:22 10° N
Nadezhda 2 Rocket 4.5 21:37:36 10° S 21:43:41 68° E 21:49:44 10° NNE
Cosmos 2227 Rocket 3.8 21:45:19 13° ESE 21:47:18 16° E 21:50:35 10° ENE
Cosmos 1939 Rocket 4.2 21:47:59 10° SSW 21:51:37 35° W 21:55:13 10° NNW
Cosmos 1300 2.9 21:50:33 10° N 21:54:20 55° E 21:56:54 19° SSE
Cosmos 405 4.3 21:52:27 10° NNW 21:55:52 39° W 21:59:15 10° SSW
Cosmos 2333 Rocket 3.5 21:52:01 10° N 21:57:00 29° NE 22:01:13 13° ESE
SL-16 R/B 4.4 21:56:10 10° NNE 21:59:01 14° NE 22:01:52 10° ENE
H-2A R/B 3.0 21:58:29 17° SE 22:02:05 37° ENE 22:07:02 10° N
Terra 2.9 22:00:09 17° ESE 22:03:01 30° ENE 22:07:09 10° N
YAOGAN 6 2.7 22:00:51 16° S 22:03:41 73° W 22:07:18 10° NNW
CZ-2C R/B 4.3 22:01:56 10° SW 22:04:39 18° W 22:07:29 10° NW
COSMOS 2428 2.7 22:03:18 10° NNW 22:09:01 84° ENE 22:13:00 20° SSE
Cosmos 1680 Rocket 4.2 22:04:49 10° NNW 22:09:53 51° WSW 22:14:22 13° S
CZ-4B R/B 3.6 22:06:30 10° NNE 22:11:49 88° WNW 22:17:01 10° SSW
SPOT 1/Viking Rocket 3.6 22:10:08 16° S 22:14:15 77° WSW 22:19:26 10° NNW
Cosmos 2297 Rocket 3.6 22:13:15 18° ESE 22:14:26 19° E 22:18:15 10° ENE
Delta 2 Rocket 3.9 22:11:57 10° WSW 22:14:54 26° S 22:15:00 26° S
OAO 2 Rocket 4.4 22:12:31 10° SW 22:16:54 26° SSE 22:18:12 24° SE
Cosmos 1455 3.7 22:13:52 10° NNE 22:16:58 23° ENE 22:18:08 20° ESE
CZ-4 R/B 3.8 22:16:06 10° NNE 22:21:05 83° ESE 22:25:20 14° SSW
Cosmos 2219 Rocket 2.5 22:15:57 10° NNW 22:21:27 54° ENE 22:24:46 23° SE
Cosmos 2242 Rocket 3.6 22:17:16 10° N 22:21:45 67° E 22:24:09 27° SSE
ARGOS 3.2 22:18:17 19° S 22:22:19 79° WSW 22:27:44 10° NNW
Cosmos 1898 Rocket 3.4 22:19:08 11° S 22:24:04 72° ESE 22:29:15 10° NNE
FALCON 9 R/B 4.2 21:58:27 10° WSW 22:27:16 59° S 22:33:41 15° ESE
CZ-4C R/B 2.9 22:26:40 35° SSE 22:28:02 77° ENE 22:31:31 10° N
Cosmos 2150 Rocket 4.0 22:22:58 10° SSW 22:28:24 81° ESE 22:33:54 10° NNE
Cosmos 858 Rocket 4.4 22:25:57 13° SSW 22:30:33 75° ESE 22:35:46 10° NNE
BREEZE-M TANK 4.4 22:03:12 10° SW 22:31:40 74° SSE 22:36:40 10° ENE
SAR-Lupe-2 4.2 22:31:51 33° ESE 22:32:53 43° ENE 22:36:18 10° N
USA 245 4.0 22:32:07 21° SW 22:33:00 26° W 22:35:04 10° NW
Cosmos 1862 Rocket 4.2 22:29:28 10° N 22:33:35 40° ENE 22:35:04 30° ESE
DELTA 2 DEB (DPAF) 4.1 22:31:49 28° SSE 22:34:12 87° WSW 22:38:44 10° NNW
SeaSat 1 4.3 22:32:39 11° E 22:35:54 21° NE 22:39:32 10° N
CARTOSAT-1 3.6 22:34:09 32° SE 22:36:00 64° ENE 22:40:18 10° N
SL-08 RB Rocket 4.0 22:34:43 23° S 22:37:21 62° WSW 22:41:50 10° NNW
Sich 1 3.3 22:34:24 17° SSW 22:37:48 68° W 22:42:12 10° N
Cosmos 1980 4.1 22:33:02 10° NNW 22:38:35 54° ENE 22:41:31 27° SE
Cosmos 1633 Rocket 3.3 22:36:53 18° SSW 22:40:05 68° W 22:44:28 10° N
Cosmos 1726 2.9 22:37:31 10° NNW 22:41:10 47° W 22:43:05 24° SSW
Cosmos 2219 4.2 22:38:04 10° SW 22:43:37 48° WNW 22:49:11 10° NNE
Tiangong 1 2.5 22:41:09 10° WSW 22:42:38 24° SW 22:42:38 24° SW
DMSP B5D2-2 4.1 22:40:01 10° NNE 22:45:14 63° ESE 22:47:50 29° S
Lacrosse 4 Rocket 3.6 22:42:38 10° N 22:45:52 19° NE 22:48:18 13° E
NOSS 3-1 (A) 3.4 22:40:06 10° SW 22:46:00 87° WNW 22:52:36 10° NE
Cosmos 1271 Rocket 3.0 22:46:28 10° NNW 22:50:15 61° W 22:51:39 35° SSW
Cosmos 2237 Rocket 2.4 22:45:50 10° NNW 22:51:31 63° ENE 22:54:11 31° SE
Cosmos 1703 3.4 22:50:01 30° SSW 22:51:49 70° W 22:55:44 10° N
Cosmos 2082 3.8 22:52:45 29° S 22:55:33 57° ESE 23:01:10 10° NNE
USA 32 4.5 22:53:21 10° NNW 22:58:31 57° W 23:01:35 24° SSW
Iridium 2 4.2 23:01:04 31° SW 23:02:36 54° W 23:06:24 10° N
Cosmos 2360 Rocket 4.4 22:59:37 10° WNW 23:03:05 17° W 23:06:34 10° SW
COSMOS 2455 3.7 22:57:27 10° NNW 23:03:10 42° NE 23:06:26 23° ESE
Cosmos 1241 Rocket 4.4 22:59:19 20° SSW 23:03:41 69° ESE 23:09:54 10° NE
ATLAS 2AS CENTAUR R/B 3.0 23:03:26 22° S 23:08:26 59° ESE 23:16:18 10° NE
Meteor 1-4 Rocket 4.0 23:05:12 10° NNW 23:08:34 31° W 23:09:49 25° SW
ERBS 3.4 23:12:02 34° ENE 23:12:02 34° ENE 23:14:14 10° NE
Nadezhda 1 Rocket 4.1 23:08:17 10° NNW 23:14:20 68° W 23:17:27 30° SSW
Cosmos 1933 3.6 23:16:22 10° N 23:20:21 53° E 23:20:45 50° ESE
Cosmos 1626 2.5 23:20:38 46° SW 23:21:25 58° W 23:25:09 10° N
IGS 5A 4.3 23:21:56 35° SW 23:23:03 43° W 23:27:03 10° NNW
Cosmos 1937 Rocket 4.4 23:20:01 12° SW 23:24:37 46° WNW 23:29:38 10° N
COS B Rocket 3.7 23:22:05 10° NNE 23:25:46 48° E 23:25:48 48° E
ATLAS 3B R/B 2.9 23:19:38 10° NNW 23:26:39 63° NE 23:30:03 30° ESE
Cosmos 2227 Rocket 2.3 23:27:04 23° SW 23:30:39 73° WNW 23:36:21 10° NNE
Okean 1-7 3.7 23:27:39 10° N 23:31:42 40° ENE 23:32:05 39° E
Cosmos 1703 Rocket 3.5 23:30:05 10° N 23:34:27 72° E 23:35:00 63° SE
Cosmos 1709 Rocket 3.9 23:32:45 38° S 23:35:16 88° ESE 23:41:25 10° N
Cosmos 2221 Rocket 3.5 23:34:59 10° N 23:39:34 78° E 23:40:14 63° SE
Terra 3.2 23:39:02 24° SW 23:40:41 30° W 23:44:52 10° NW
Cosmos 2333 Rocket 2.8 23:35:59 10° NW 23:41:28 46° WSW 23:43:13 35° SSW
H-2A R/B 3.5 23:39:07 22° SW 23:41:30 30° W 23:46:15 10° NW
Cosmos 44 Rocket 4.2 23:42:25 34° ESE 23:42:25 34° ESE 23:46:44 10° NE
NOSS 2-3 (E) 4.4 23:43:23 42° ESE 23:43:23 42° ESE 23:48:27 10° NE
SL-16 R/B 2.2 23:38:28 10° NNW 23:44:11 74° ENE 23:45:52 46° SE
Cosmos 1269 Rocket 3.9 23:41:31 10° NNW 23:46:52 85° WSW 23:48:05 55° SSE
GEOS 3 Rocket 4.0 23:46:31 35° ESE 23:48:33 59° NE 23:53:39 10° NNW
CZ-4C R/B 4.3 23:44:33 10° NNW 23:50:31 30° NE 23:57:02 10° E
Cosmos 1455 4.0 23:49:36 10° NW 23:52:36 22° W 23:53:10 21° WSW
Cosmos 1900 4.2 23:48:28 10° NNW 23:53:28 87° WSW 23:54:14 64° SSE
